Location: Oklahoma City
(35.4680°N, 97.5160°W)
Time: 04:51:37
(UTC-06:00)

ISS - All Passes

Search period start: 17 January 2017 00:00
Search period end: 27 January 2017 00:00
Orbit: 400 x 410 km, 51.6° (Epoch: 17 January)

Date Brightness Start Highest point End Pass type
(mag) Time Alt. Az. Time Alt. Az. Time Alt. Az.
17 Jan - 00:07:53 10° WSW 00:10:59 42° NW 00:14:06 10° NE night (unlit)
17 Jan - 06:37:59 10° NW 06:41:10 51° NE 06:44:21 10° ESE visible
17 Jan - 08:16:00 10° WSW 08:17:18 12° SW 08:18:36 10° SSW daylight
17 Jan - 23:15:31 10° SW 23:18:46 90° SE 23:22:02 10° NE night (unlit)
18 Jan - 00:54:09 10° NW 00:55:39 13° NNW 00:57:10 10° N night (unlit)
18 Jan - 05:46:03 10° NNW 05:48:53 27° NE 05:51:42 10° E visible
18 Jan - 07:22:35 10° WNW 07:25:17 24° SW 07:27:59 10° S daylight
18 Jan - 22:23:34 10° SSW 22:26:38 39° SE 22:29:41 10° ENE night (unlit)
19 Jan - 00:00:46 10° W 00:03:13 19° NNW 00:05:41 10° NNE night (unlit)
19 Jan - 04:54:20 10° NNW 04:56:30 16° NNE 04:58:39 10° ENE visible
19 Jan - 06:30:01 10° WNW 06:33:11 54° SW 06:36:22 10° SSE visible
19 Jan - 21:32:11 10° S 21:34:33 19° SE 21:36:55 10° E night (unlit)
19 Jan - 23:07:51 10° WSW 23:10:51 33° NW 23:13:51 10° NNE night (unlit)
20 Jan - 04:03:07 10° N 04:04:01 11° NNE 04:04:53 10° NE night (unlit)
20 Jan - 05:37:46 10° NW 05:41:00 67° NE 05:44:13 10° SE visible
20 Jan - 22:15:20 10° SW 22:18:34 68° NW 22:21:49 10° NE night (unlit)
20 Jan - 23:54:37 10° NW 23:55:33 11° NNW 23:56:30 10° N night (unlit)
21 Jan - 04:45:43 10° NNW 04:48:43 33° NE 04:51:41 10° ESE visible
21 Jan - 06:22:38 10° W 06:25:01 19° SW 06:27:23 10° S visible
21 Jan - 21:23:10 10° SSW 21:26:21 53° SE 21:29:32 10° ENE night (unlit)
21 Jan - 23:00:51 10° WNW 23:03:03 17° NNW 23:05:14 10° NNE night (unlit)
22 Jan - 03:53:53 10° NNW 03:56:19 19° NNE 03:58:45 10° E night (unlit)
22 Jan - 05:29:50 10° WNW 05:32:55 40° SW 05:35:58 10° SSE visible
22 Jan - 20:31:31 10° S 20:34:13 24° SE 20:36:55 10° ENE night (unlit)
22 Jan - 22:07:46 10° W 22:10:36 27° NW 22:13:27 10° NNE night (unlit)
23 Jan - 03:02:21 10° N 03:03:49 12° NNE 03:05:18 10° NE night (unlit)
23 Jan - 04:37:27 10° NW 04:40:42 89° NE 04:43:57 10° SE visible
23 Jan - 19:40:53 10° SSE 19:42:08 12° SE 19:43:24 10° ESE visible
23 Jan - 21:15:04 10° WSW 21:18:15 52° NW 21:21:27 10° NE night (unlit)
24 Jan - 03:45:18 10° NW 03:48:25 41° NE 03:51:30 10° ESE night (unlit)
24 Jan - 05:22:43 10° W 05:24:36 15° SW 05:26:30 10° SSW visible
24 Jan - 20:22:44 10° SW 20:25:58 71° SE 20:29:13 10° NE visible
24 Jan - 22:00:54 10° WNW 22:02:46 14° NNW 22:04:38 10° N night (unlit)
25 Jan - 02:53:21 10° NNW 02:56:01 23° NNE 02:58:40 10° E night (unlit)
25 Jan - 04:29:35 10° WNW 04:32:30 30° SW 04:35:23 10° SSE night (unlit)
25 Jan - 19:30:49 10° SSW 19:33:46 31° SE 19:36:42 10° ENE visible
25 Jan - 21:07:36 10° W 21:10:15 22° NNW 21:12:55 10° NNE night (unlit)
26 Jan - 02:01:37 10° N 02:03:31 14° NNE 02:05:23 10° ENE night (unlit)
26 Jan - 03:37:03 10° NW 03:40:17 69° SW 03:43:29 10° SE night (unlit)
26 Jan - 18:39:38 10° SSE 18:41:37 15° SE 18:43:37 10° E visible
26 Jan - 20:14:43 10° WSW 20:17:50 40° NW 20:20:57 10° NE visible
